This is the latest recevied weather packets stored in our database for station/object N5JXS. If no packets are shown the sender has not sent any weather packets the latest 10 day(s).
| Time | Temp. | Humidity | Pressure | Rain* | Wind** | Luminosity | Snow |
|---|---|---|---|---|---|---|---|
| 1777595823 | 0.56° C | 98% | 1022.4 hPa | 0 mm | - | 56 W/m² | - |
| 1777595518 | 0.56° C | 98% | 1022.2 hPa | 0 mm | - | 52 W/m² | - |
| 1777595214 | 1.11° C | 98% | 1022.6 hPa | 0 mm | - | 54 W/m² | - |
| 1777594910 | 0.56° C | 98% | 1022.6 hPa | 1.78 mm | - | 60 W/m² | - |
| 1777594606 | 0.56° C | 98% | 1022.6 hPa | 1.78 mm | - | 67 W/m² | - |
| 1777594303 | 0.56° C | 98% | 1022.4 hPa | 0 mm | - | 50 W/m² | - |
| 1777593999 | 0.56° C | 98% | 1022.2 hPa | 0 mm | - | 20 W/m² | - |
| 1777593695 | 0.56° C | 98% | 1022.5 hPa | 1.27 mm | - | 31 W/m² | - |
| 1777593392 | 0.56° C | 98% | 1022.4 hPa | 1.27 mm | - | 44 W/m² | - |
| 1777593090 | 0.56° C | 98% | 1022.4 hPa | 0 mm | - | 52 W/m² | - |
| 1777592790 | 1.11° C | 98% | 1022.4 hPa | 0 mm | - | 51 W/m² | - |
| 1777592486 | 1.11° C | 98% | 1022.2 hPa | 1.78 mm | - | 58 W/m² | - |
| 1777592182 | 1.11° C | 98% | 1022.2 hPa | 1.78 mm | - | 73 W/m² | - |
| 1777591878 | 1.11° C | 98% | 1022.1 hPa | 0 mm | - | 103 W/m² | - |
| 1777591574 | 1.11° C | 98% | 1022.4 hPa | 0 mm | - | 95 W/m² | - |
| 1777591271 | 1.11° C | 98% | 1022.5 hPa | 1.27 mm | - | 71 W/m² | - |
| 1777590966 | 1.11° C | 98% | 1022.1 hPa | 1.27 mm | - | 65 W/m² | - |
| 1777590662 | 1.11° C | 98% | 1022.1 hPa | 0 mm | - | 84 W/m² | - |
| 1777590358 | 0.56° C | 98% | 1022 hPa | 0 mm | - | 77 W/m² | - |
| 1777590056 | 0.56° C | 98% | 1022 hPa | 0 mm | - | 66 W/m² | - |
| 1777589752 | 0.56° C | 98% | 1022 hPa | 1.78 mm | - | 46 W/m² | - |
| 1777589451 | 0.56° C | 98% | 1022 hPa | 1.78 mm | - | 41 W/m² | - |
| 1777589146 | 0.56° C | 98% | 1021.9 hPa | 0 mm | - | 49 W/m² | - |
| 1777588842 | 0.56° C | 98% | 1022 hPa | 0 mm | - | 48 W/m² | - |
| 1777588539 | 0.56° C | 98% | 1022 hPa | 1.27 mm | - | 58 W/m² | - |
* Rain latest hour (hover to see other rain measurements)
** Current wind speed in m/s (hover to see current wind gust speed)